Location: Bucharest
(44.4268°N, 26.1025°E)
Time: 20:54:27
(UTC+03:00)

SPROUT - Pass Details

Date: 05 July 2022
Orbit: 588 x 598 km, 97.9° (Epoch: 18 August)

Event Time Altitude Azimuth Distance (km) Brightness Sun altitude
Exits shadow 00:43:46 11° 89° (E) 1,838 ? -22.2°
Maximum altitude 00:45:33 14° 62° (ENE) 1,666 ? -22.3°
Drops below altitude 10° 00:47:45 10° 30° (NNE) 1,926 ? -22.4°
Sets 00:50:48 0° 5° (N) 2,835 ? -22.4°
